User: anonymous   Login
Location: Igri�s
(42.2144°N, 0.4320°W)
Time: 15:03:28
(UTC+00:00)
Language:

Cosmos 2084 Rocket - Orbit

View from above orbital plane
View from above orbital plane
View from above satellite
View from above satellite

Ground track
Ground track

The orbit data is extracted from the following two-line orbital elements,

1 20666U 90055D   20295.27648760 -.00000009 +00000-0 +17346-4 0  9992
2 20666 062.7876 024.1972 0063742 004.6466 355.5206 14.92372975644077
Epoch (UTC): 21 October 2020 06:38:08
Eccentricity: 0.0063742
inclination: 62.7876°
perigee height: 546 km
apogee height: 635 km
right ascension of ascending node: 24.1972°
argument of perigee: 4.6466°
revolutions per day: 14.92372975
mean anomaly at epoch: 355.5206°
orbit number at epoch: 64407

The dashed part of the orbit path shows where the satellite is in the earth's shadow,  

DLR